THY1UC LICJ-LTFM

Flight info

Callsign THY1UC
Flight time N/A
Altitude 36000
Route ROSAS DCT BAGIX DCT APVAR DCT LAMEB DCT GEMVI DCT LATAN/N0452F350 DCT PIKOS DCT PEREN UN644 DIGTI UT162 DRAMO
Aircraft A21N/M-SDE2E3FGHIRWY/LB1

Departure

Time 2026-04-29 10:46
Airport Falcone–Borsellino Airport (LICJ)

Arrival

Time N/A
Airport İstanbul Airport (LTFM)
Time Latitude Longitude Altitude Speed Heading
2026-04-29 10:24 38.18513 13.10488 58 ft 0 kts 336°
2026-04-29 10:33 38.18502 13.10496 58 ft 2 kts 327°
2026-04-29 10:34 38.18488 13.10508 58 ft 2 kts 316°
2026-04-29 10:34 38.18478 13.10524 58 ft 2 kts 302°
2026-04-29 10:34 38.18471 13.10543 61 ft 2 kts 287°
2026-04-29 10:34 38.18467 13.10563 60 ft 2 kts 274°
2026-04-29 10:35 38.18467 13.10584 62 ft 2 kts 264°
2026-04-29 10:35 38.18470 13.10604 60 ft 2 kts 256°
2026-04-29 10:35 38.18475 13.10624 60 ft 2 kts 249°
2026-04-29 10:35 38.18476 13.10629 59 ft 0 kts 248°
2026-04-29 10:38 38.18476 13.10628 68 ft 0 kts 248°
2026-04-29 10:38 38.18472 13.10616 64 ft 3 kts 248°
2026-04-29 10:38 38.18463 13.10589 61 ft 4 kts 246°
2026-04-29 10:38 38.18449 13.10551 61 ft 6 kts 239°
2026-04-29 10:39 38.18420 13.10519 64 ft 6 kts 208°
2026-04-29 10:39 38.18384 13.10499 60 ft 6 kts 203°
2026-04-29 10:39 38.18347 13.10479 64 ft 6 kts 207°
2026-04-29 10:39 38.18322 13.10444 62 ft 5 kts 239°
2026-04-29 10:40 38.18296 13.10375 64 ft 14 kts 248°
2026-04-29 10:40 38.18256 13.10254 62 ft 15 kts 247°
2026-04-29 10:40 38.18214 13.10132 65 ft 15 kts 246°
2026-04-29 10:40 38.18174 13.10015 60 ft 14 kts 248°
2026-04-29 10:41 38.18136 13.09901 66 ft 14 kts 241°
2026-04-29 10:41 38.18058 13.09859 62 ft 11 kts 206°
2026-04-29 10:41 38.18021 13.09784 61 ft 10 kts 248°
2026-04-29 10:41 38.17992 13.09688 64 ft 13 kts 248°
2026-04-29 10:42 38.17939 13.09551 65 ft 20 kts 247°
2026-04-29 10:42 38.17886 13.09392 63 ft 19 kts 247°
2026-04-29 10:42 38.17841 13.09253 68 ft 16 kts 247°
2026-04-29 10:42 38.17795 13.09116 64 ft 19 kts 246°
2026-04-29 10:43 38.17736 13.08959 62 ft 14 kts 233°
2026-04-29 10:43 38.17675 13.08890 65 ft 12 kts 219°
2026-04-29 10:43 38.17612 13.08831 65 ft 11 kts 216°
2026-04-29 10:43 38.17551 13.08773 67 ft 10 kts 216°
2026-04-29 10:44 38.17495 13.08767 71 ft 7 kts 150°
2026-04-29 10:44 38.17486 13.08811 67 ft 5 kts 67°
2026-04-29 10:44 38.17488 13.08815 68 ft 0 kts 66°
2026-04-29 10:45 38.17564 13.09044 70 ft 59 kts 67°
2026-04-29 10:45 38.17809 13.09769 66 ft 121 kts 66°
2026-04-29 10:45 38.18220 13.10995 68 ft 175 kts 67°
2026-04-29 10:45 38.18670 13.12455 571 ft 178 kts 69°
2026-04-29 10:46 38.19097 13.13936 1167 ft 179 kts 70°
2026-04-29 10:46 38.19523 13.15432 1736 ft 184 kts 70°
2026-04-29 10:46 38.20022 13.16982 2293 ft 194 kts 65°
2026-04-29 10:46 38.20743 13.18435 2916 ft 194 kts 44°
2026-04-29 10:47 38.21821 13.19551 3410 ft 209 kts 38°
2026-04-29 10:47 38.23130 13.20569 3696 ft 231 kts 28°
2026-04-29 10:47 38.24650 13.21496 4033 ft 252 kts 25°
2026-04-29 10:47 38.26284 13.22405 4611 ft 259 kts 24°
2026-04-29 10:48 38.27958 13.23311 5292 ft 263 kts 23°
2026-04-29 10:48 38.29653 13.24219 5978 ft 267 kts 23°
2026-04-29 10:48 38.31402 13.25152 6545 ft 279 kts 22°
2026-04-29 10:48 38.33209 13.26116 7272 ft 284 kts 22°
2026-04-29 10:49 38.35044 13.27095 8096 ft 288 kts 22°
2026-04-29 10:49 38.36901 13.28085 8970 ft 291 kts 21°
2026-04-29 10:49 38.38778 13.29086 9892 ft 293 kts 21°
2026-04-29 10:49 38.40683 13.30102 10522 ft 305 kts 21°
2026-04-29 10:50 38.42706 13.31179 10847 ft 326 kts 21°
2026-04-29 10:50 38.44866 13.32330 11172 ft 347 kts 21°
2026-04-29 10:50 38.47158 13.33554 11495 ft 367 kts 21°
2026-04-29 10:50 38.49565 13.34840 11920 ft 382 kts 21°
2026-04-29 10:51 38.52043 13.36167 12565 ft 390 kts 21°
2026-04-29 10:51 38.54560 13.37517 13259 ft 395 kts 21°
2026-04-29 10:51 38.57113 13.38887 13931 ft 400 kts 21°
2026-04-29 10:51 38.59661 13.40255 14528 ft 404 kts 20°
2026-04-29 10:52 38.62263 13.41652 15164 ft 407 kts 20°
2026-04-29 10:52 38.64883 13.43060 15781 ft 410 kts 20°
2026-04-29 10:52 38.67527 13.44481 16410 ft 414 kts 20°
2026-04-29 10:52 38.70190 13.45914 17026 ft 417 kts 21°
2026-04-29 10:53 38.72877 13.47362 17622 ft 420 kts 21°
2026-04-29 10:53 38.75581 13.48822 18203 ft 424 kts 21°
2026-04-29 10:53 38.78242 13.50492 18691 ft 429 kts 28°
2026-04-29 10:53 38.80695 13.52720 19154 ft 436 kts 39°
2026-04-29 10:54 38.82800 13.55549 19641 ft 442 kts 51°
2026-04-29 10:54 38.84447 13.58891 20122 ft 447 kts 63°
2026-04-29 10:54 38.85557 13.62636 20581 ft 452 kts 75°
2026-04-29 10:54 38.86171 13.66599 21046 ft 455 kts 81°
2026-04-29 10:55 38.86579 13.70635 21490 ft 458 kts 83°
2026-04-29 10:55 38.86886 13.74723 21930 ft 461 kts 84°
2026-04-29 10:55 38.87155 13.78833 22361 ft 464 kts 85°
2026-04-29 10:55 38.87335 13.81628 22652 ft 466 kts 85°
2026-04-29 10:56 38.87704 13.87144 23229 ft 470 kts 84°
2026-04-29 10:56 38.88002 13.91333 23691 ft 472 kts 84°
2026-04-29 10:56 38.88312 13.95538 24029 ft 475 kts 84°
2026-04-29 10:56 38.88632 13.99781 24366 ft 479 kts 84°
2026-04-29 10:57 38.88957 14.04050 24713 ft 482 kts 84°
2026-04-29 10:57 38.89173 14.06893 24936 ft 484 kts 84°
2026-04-29 10:57 38.89501 14.11211 25274 ft 488 kts 84°
2026-04-29 10:57 38.89828 14.15552 25607 ft 491 kts 84°
2026-04-29 10:58 38.90155 14.19924 25929 ft 493 kts 84°
2026-04-29 10:58 38.90481 14.24316 26285 ft 495 kts 84°
2026-04-29 10:58 38.90806 14.28713 26713 ft 494 kts 84°
2026-04-29 10:58 38.91128 14.33106 27121 ft 494 kts 84°
2026-04-29 10:59 38.91449 14.37501 27522 ft 494 kts 84°
2026-04-29 10:59 38.91767 14.41885 27981 ft 493 kts 84°
2026-04-29 10:59 38.92083 14.46265 28382 ft 492 kts 84°
2026-04-29 10:59 38.92397 14.50643 28757 ft 493 kts 84°
2026-04-29 11:00 38.92711 14.55021 29120 ft 493 kts 84°
2026-04-29 11:00 38.93023 14.59406 29480 ft 493 kts 84°
2026-04-29 11:00 38.93333 14.63789 29843 ft 493 kts 84°
2026-04-29 11:00 38.93642 14.68173 30195 ft 493 kts 84°
2026-04-29 11:01 38.93948 14.72556 30511 ft 492 kts 84°
2026-04-29 11:01 38.94251 14.76924 30846 ft 491 kts 84°
2026-04-29 11:01 38.94553 14.81287 31163 ft 490 kts 84°
2026-04-29 11:01 38.94852 14.85637 31470 ft 489 kts 84°
2026-04-29 11:02 38.95150 14.89987 31762 ft 488 kts 84°
2026-04-29 11:02 38.95445 14.94328 32068 ft 487 kts 84°
2026-04-29 11:02 38.95738 14.98658 32399 ft 485 kts 84°
2026-04-29 11:02 38.96029 15.02974 32666 ft 485 kts 84°
2026-04-29 11:03 38.96318 15.07288 32909 ft 485 kts 84°
2026-04-29 11:03 38.96605 15.11603 33147 ft 485 kts 84°
2026-04-29 11:03 38.96891 15.15918 33385 ft 484 kts 84°
2026-04-29 11:03 38.97174 15.20228 33618 ft 484 kts 84°
2026-04-29 11:04 38.97456 15.24534 33840 ft 484 kts 84°
2026-04-29 11:04 38.97736 15.28838 34055 ft 483 kts 84°
2026-04-29 11:04 38.98015 15.33154 34159 ft 485 kts 84°